Location: Unspecified
(40.9447°N, 78.9903°W)
Time: 10:25:35
(UTC-04:00)

Resurs 1-4 Rocket - Pass Details

Date: 02 August 2021
Orbit: 799 x 815 km, 98.6° (Epoch: 23 September)

Event Time Altitude Azimuth Distance (km) Brightness Sun altitude
Rises 04:38:42 0° 352° (N) 3,337 5.8 -15.8°
Reaches altitude 10° 04:43:03 10° 318° (NW) 2,396 4.5 -15.2°
Maximum altitude 04:44:23 11° 303° (WNW) 2,326 4.3 -15.0°
Drops below altitude 10° 04:45:42 10° 288° (WNW) 2,389 4.3 -14.8°
Enters shadow 04:46:37 - 279° (W) 2,505 4.3 -14.7°
